Weather in Staroye Badikovo

Russia / Republic of Mordovia     53°50′24″N   42°41′57″E
temp.,
°C
wind,
m/s
gust,
m/s
humid.,
%
clouds,
%
prec.,
mm/h
press.,
hPa
HPBL,
m
7 march, sun
sun700:00−13wnw349559 0.0 101541
03:00−14wsw349630 0.0 101534
06:00−15sw349787 0.1 101455
09:00−11ssw6109482 0.1 1012333
12:00−5sw8148297 0.0 1008996
15:00−5sw10179399 0.8 10041122
18:00−4sw91694100 2.0 10001116
21:00−3sw91595100 4.1 9961038
8 march, mon
mon800:00−2wsw81392100 2.1 994785
03:00−7wsw5149192 2.2 997460
06:00−9wsw5128810 0.0 999331
09:00−8sw599116 0.0 1001409
12:00−5wsw6990100 0.1 1001892
15:00−4wsw71082100 0.4 10011091
18:00−7wsw5108784 0.1 1002282
21:00−11w498969 0.3 1005143
9 march, tue
tue900:00−13wnw45960 0.0 100784
03:00−15nw33977 0.0 100920
06:00−16wnw339831 0.0 101131
09:00−14nw359665 0.0 1012231
12:00−10nw3588100 0.0 1013547
15:00−9nw4687100 0.1 1014709
18:00−12nw3694100 0.1 1014191
21:00−15nw4697100 0.1 1017118
10 march, wed
wed1000:00−18nw359897 0.1 101883
03:00−21nw3410096 0.1 102064
06:00−23nw3410098 0.0 102176
09:00−21nw479799 0.1 1023264
12:00−17nnw4689100 0.0 1024576
15:00−16nw4685100 0.0 1025719
18:00−20nw3494100 0.0 102656
21:00−23nw339661 0.0 102820
11 march, thu
thu1100:00−25nw22980 0.0 102820
03:00−25w23960 0.0 102920
06:00−25w23900 0.0 103020
09:00−20w35920 0.0 1030165
12:00−13w35790 0.0 1030392
15:00−11wsw35780 0.0 1029483
18:00−15sw33860 0.0 102923
21:00−18ssw34880 0.0 103045